N3KJE Weather Reports


time (UTC)temp
F
wind
direction
speed
knots
gust
knots
rain 1hr
in
rain 24hr
in
rain mn
in
humidity
%
barometer
mb
20260505040005 64 187 1.7 10.4 0.00 0.00 0.00 76 1011.4
20260505035004 64 155 1.7 6.1 0.00 0.00 0.00 76 1011.3
20260505034505 63 268 1.7 4.3 0.00 0.00 0.00 76 1011.3
20260505033504 63 129 0.9 2.6 0.00 0.00 0.00 76 1011.3
20260505033004 63 298 0.9 2.6 0.00 0.00 0.00 76 1011.2
20260505032504 63 108 1.7 4.3 0.00 0.00 0.00 76 1011.3
20260505031004 63 167 1.7 5.2 0.00 0.00 0.00 76 1011.1
20260505024005 63 182 0.9 5.2 0.00 0.00 0.00 76 1011.4
20260505023004 63 160 1.7 6.1 0.00 0.00 0.00 76 1011.4
20260505022505 63 169 0.9 2.6 0.00 0.00 0.00 76 1011.3
20260505021504 63 148 1.7 2.6 0.00 0.00 0.00 75 1011.4
20260505021004 63 183 3.5 7.0 0.00 0.00 0.00 75 1011.5
20260505014504 63 140 1.7 7.0 0.00 0.00 0.00 75 1011.4
20260505013505 63 149 2.6 6.1 0.00 0.00 0.00 74 1011.4
20260505013004 63 179 1.7 6.1 0.00 0.00 0.00 75 1011.4
20260505012005 63 160 1.7 7.8 0.00 0.00 0.00 74 1011.4
20260505010505 63 150 1.7 5.2 0.00 0.00 0.00 73 1011.3
20260505010004 63 140 1.7 4.3 0.00 0.00 0.00 73 1011.3
20260505003504 64 126 1.7 4.3 0.00 0.00 0.00 72 1011.2
20260505003005 64 102 0.9 2.6 0.00 0.00 0.00 71 1011.3
20260505002505 64 160 1.7 4.3 0.00 0.00 0.00 71 1011.3
20260505002004 64 175 1.7 4.3 0.00 0.00 0.00 70 1011.3
20260505001005 65 165 0.9 4.3 0.00 0.00 0.00 69 1011.2
20260505000505 65 178 2.6 7.8 0.00 0.00 0.00 69 1011.1
20260505000004 65 175 2.6 4.3 0.00 0.00 0.00 69 1011.1
20260504234504 66 16 0.9 4.3 0.00 0.00 0.00 66 1010.9
20260504234005 66 121 1.7 4.3 0.00 0.00 0.00 65 1010.9
20260504232505 67 198 1.7 4.3 0.00 0.00 0.00 63 1010.7
20260504231004 68 135 2.6 6.1 0.00 0.00 0.00 61 1010.6
20260504223504 70 169 1.7 10.4 0.00 0.00 0.00 56 1010.7
20260504223004 70 136 2.6 8.7 0.00 0.00 0.00 54 1010.6
20260504222504 71 150 2.6 10.4 0.00 0.00 0.00 53 1010.6
20260504222004 71 187 2.6 10.4 0.00 0.00 0.00 52 1010.6
20260504221504 72 152 4.3 7.8 0.00 0.00 0.00 51 1010.6
20260504220504 75 157 4.3 10.4 0.00 0.00 0.00 45 1010.5
20260504215004 75 119 1.7 8.7 0.00 0.00 0.00 36 1010.6
20260504213505 76 3 2.6 7.0 0.00 0.00 0.00 36 1010.6
20260504213005 76 223 3.5 8.7 0.00 0.00 0.00 34 1010.6
20260504212004 76 231 3.5 8.7 0.00 0.00 0.00 33 1010.6
20260504210504 76 255 1.7 7.8 0.00 0.00 0.00 33 1010.5
20260504205504 76 59 1.7 8.7 0.00 0.00 0.00 33 1010.6
20260504203504 76 310 2.6 10.4 0.00 0.00 0.00 35 1010.7
20260504202504 76 188 2.6 10.4 0.00 0.00 0.00 35 1010.6
20260504201504 77 254 3.5 10.4 0.00 0.00 0.00 35 1010.7
20260504201004 77 236 1.7 7.0 0.00 0.00 0.00 35 1010.8
20260504200504 77 215 2.6 7.0 0.00 0.00 0.00 34 1010.7
20260504200005 76 293 1.7 4.3 0.00 0.00 0.00 34 1010.8
20260504195504 76 275 1.7 7.0 0.00 0.00 0.00 33 1010.9
20260504195005 76 212 2.6 8.7 0.00 0.00 0.00 34 1010.9
20260504194505 76 249 2.6 6.1 0.00 0.00 0.00 33 1011.0
20260504194004 76 249 2.6 7.8 0.00 0.00 0.00 33 1011.0
20260504193504 76 260 2.6 7.0 0.00 0.00 0.00 33 1011.1
20260504192505 77 166 2.6 7.8 0.00 0.00 0.00 34 1011.1
20260504192004 76 236 2.6 7.8 0.00 0.00 0.00 33 1011.2
20260504191005 76 14 2.6 5.2 0.00 0.00 0.00 34 1011.3
20260504190504 76 100 2.6 7.8 0.00 0.00 0.00 33 1011.4
20260504185505 76 221 1.7 6.1 0.00 0.00 0.00 36 1011.5
20260504184504 76 188 4.3 10.4 0.00 0.00 0.00 32 1011.6
20260504184004 76 225 2.6 8.7 0.00 0.00 0.00 34 1011.6
20260504183504 76 264 2.6 6.1 0.00 0.00 0.00 36 1011.6
20260504182505 75 297 4.3 8.7 0.00 0.00 0.00 34 1011.8
20260504181504 75 260 1.7 6.1 0.00 0.00 0.00 35 1011.9
20260504181005 75 308 3.5 7.8 0.00 0.00 0.00 35 1011.9
20260504180505 75 241 3.5 7.0 0.00 0.00 0.00 33 1012.0
20260504180004 75 273 3.5 13.0 0.00 0.00 0.00 34 1012.0
20260504175504 75 271 2.6 7.0 0.00 0.00 0.00 33 1012.1
20260504175004 75 218 3.5 8.7 0.00 0.00 0.00 33 1012.2
20260504173005 75 282 2.6 7.8 0.00 0.00 0.00 34 1012.4
20260504172004 74 292 3.5 7.0 0.00 0.00 0.00 34 1012.5
20260504171504 75 355 2.6 7.8 0.00 0.00 0.00 34 1012.6
20260504170504 74 215 2.6 7.0 0.00 0.00 0.00 38 1012.7
20260504140505 66 181 1.7 4.3 0.00 0.00 0.00 55 1014.1
20260504130504 63 148 1.7 4.3 0.00 0.00 0.00 60 1014.9
20260504110505 53 136 0.9 2.6 0.00 0.00 0.00 79 1015.6
20260504081004 52 174 1.7 2.6 0.00 0.00 0.00 77 1015.9
20260504080504 52 172 1.7 4.3 0.00 0.00 0.00 77 1015.8
20260504050505 50 175 1.7 2.6 0.00 0.00 0.00 62 1015.8
20260504045004 49 147 0.9 2.6 0.00 0.00 0.00 64 1015.7
20260504044504 49 109 0.9 1.7 0.00 0.00 0.00 64 1015.7
20260504044005 49 109 0.9 1.7 0.00 0.00 0.00 64 1015.7
20260504043004 48 144 0.0 1.7 0.00 0.00 0.00 65 1015.7
20260504042504 48 132 0.0 1.7 0.00 0.00 0.00 66 1015.6
20260504042004 48 138 0.0 1.7 0.00 0.00 0.00 66 1015.6
20260504041504 48 138 0.0 1.7 0.00 0.00 0.00 66 1015.5
20260504041005 48 138 0.0 1.7 0.00 0.00 0.00 66 1015.5